[TLELIST] Archives

 

[TLELIST] Current TLEs

February 3rd 2024 PDT

HST 1 20580U 90037B 24033.76975623 .00005097 00000-0 25024-3 0 9998 2 20580 28.4677 171.0093 0002693 13.4962 346.5701 15.15768431656450 ISS (ZARYA) 1 25544U 98067A 24034.22935277 .00013670 00000-0 25170-3 0 9995 2 25544 51.6412 264.1237 0002401 190.7253 273.4103 15.49468734437623 CXO 1 25867U 99040B 24035.65432876 .00000814 00000-0 00000+0 0 9997 2 25867 38.5938 167.6425 8987917 286.1599 0.8610 0.37812418 25215 ...Continue Reading

[TLELIST] Current TLEs

February 2nd 2024 PDT

HST 1 20580U 90037B 24032.78212384 .00005275 00000-0 25943-3 0 9995 2 20580 28.4676 177.6065 0002705 3.6314 356.4297 15.15758990656309 ISS (ZARYA) 1 25544U 98067A 24033.14127905 .00013172 00000-0 24312-3 0 9990 2 25544 51.6421 269.5100 0002368 186.5110 324.3032 15.49436537437452 CXO 1 25867U 99040B 24035.65432876 .00000814 00000-0 00000+0 0 9997 2 25867 38.5938 167.6425 8987917 286.1599 0.8610 0.37812418 25215 ...Continue Reading

[TLELIST] Current TLEs

February 2nd 2024 PDT

HST 1 20580U 90037B 24032.78212384 .00005275 00000-0 25943-3 0 9995 2 20580 28.4676 177.6065 0002705 3.6314 356.4297 15.15758990656309 ISS (ZARYA) 1 25544U 98067A 24033.14127905 .00013172 00000-0 24312-3 0 9990 2 25544 51.6421 269.5100 0002368 186.5110 324.3032 15.49436537437452 CXO 1 25867U 99040B 24035.65432876 .00000814 00000-0 00000+0 0 9997 2 25867 38.5938 167.6425 8987917 286.1599 0.8610 0.37812418 25215 ...Continue Reading

[TLELIST] Current TLEs

February 1st 2024 PDT

HST 1 20580U 90037B 24031.86032733 .00005463 00000-0 26906-3 0 9990 2 20580 28.4674 183.7628 0002550 353.2658 6.7899 15.15749951656167 ISS (ZARYA) 1 25544U 98067A 24032.17171159 .00013291 00000-0 24546-3 0 9993 2 25544 51.6422 274.3095 0002294 183.9900 315.0776 15.49410305437307 CXO 1 25867U 99040B 24033.00810059 .00000752 00000-0 00000-0 0 9999 2 25867 38.5764 167.8442 8991203 286.0130 0.5394 0.37812923 14053 ...Continue Reading

[TLELIST] Current TLEs

February 1st 2024 PDT

HST 1 20580U 90037B 24031.86032733 .00005463 00000-0 26906-3 0 9990 2 20580 28.4674 183.7628 0002550 353.2658 6.7899 15.15749951656167 ISS (ZARYA) 1 25544U 98067A 24032.17171159 .00013291 00000-0 24546-3 0 9993 2 25544 51.6422 274.3095 0002294 183.9900 315.0776 15.49410305437307 CXO 1 25867U 99040B 24033.00810059 .00000752 00000-0 00000-0 0 9999 2 25867 38.5764 167.8442 8991203 286.0130 0.5394 0.37812923 14053 ...Continue Reading

[TLELIST] Current TLEs

February 1st 2024 PDT

HST 1 20580U 90037B 24031.86032733 .00005463 00000-0 26906-3 0 9990 2 20580 28.4674 183.7628 0002550 353.2658 6.7899 15.15749951656167 ISS (ZARYA) 1 25544U 98067A 24032.17171159 .00013291 00000-0 24546-3 0 9993 2 25544 51.6422 274.3095 0002294 183.9900 315.0776 15.49410305437307 CXO 1 25867U 99040B 24033.00810059 .00000752 00000-0 00000-0 0 9999 2 25867 38.5764 167.8442 8991203 286.0130 0.5394 0.37812923 14053 ...Continue Reading

[TLELIST] Current TLEs

February 1st 2024 PDT

HST 1 20580U 90037B 24031.86032733 .00005463 00000-0 26906-3 0 9990 2 20580 28.4674 183.7628 0002550 353.2658 6.7899 15.15749951656167 ISS (ZARYA) 1 25544U 98067A 24032.17171159 .00013291 00000-0 24546-3 0 9993 2 25544 51.6422 274.3095 0002294 183.9900 315.0776 15.49410305437307 CXO 1 25867U 99040B 24033.00810059 .00000752 00000-0 00000-0 0 9999 2 25867 38.5764 167.8442 8991203 286.0130 0.5394 0.37812923 14053 ...Continue Reading

[TLELIST] Current TLEs

January 31st 2024 PDT

HST 1 20580U 90037B 24030.87268259 .00005241 00000-0 25784-3 0 9991 2 20580 28.4673 190.3596 0002446 341.5950 18.4553 15.15738998656013 ISS (ZARYA) 1 25544U 98067A 24031.20499656 .00012911 00000-0 23891-3 0 9991 2 25544 51.6412 279.0972 0002441 181.5163 321.8209 15.49383312437157 CXO 1 25867U 99040B 24033.00810059 .00000752 00000-0 00000-0 0 9999 2 25867 38.5764 167.8442 8991203 286.0130 0.5394 0.37812923 14053 ...Continue Reading

[TLELIST] Current TLEs

January 30th 2024 PDT

HST 1 20580U 90037B 24029.88503084 .00005555 00000-0 27394-3 0 9995 2 20580 28.4668 196.9562 0002270 329.3609 30.6850 15.15729533655865 ISS (ZARYA) 1 25544U 98067A 24030.17092880 .00015130 00000-0 27874-3 0 9995 2 25544 51.6416 284.2140 0002343 176.0209 315.7593 15.49359891436991 CXO 1 25867U 99040B 24027.71675503 .00000624 00000-0 00000+0 0 9990 2 25867 38.5126 168.4056 8999355 285.5718 0.1832 0.37808521 25183 ...Continue Reading

[TLELIST] Current TLEs

January 30th 2024 PDT

HST 1 20580U 90037B 24029.88503084 .00005555 00000-0 27394-3 0 9995 2 20580 28.4668 196.9562 0002270 329.3609 30.6850 15.15729533655865 ISS (ZARYA) 1 25544U 98067A 24030.17092880 .00015130 00000-0 27874-3 0 9995 2 25544 51.6416 284.2140 0002343 176.0209 315.7593 15.49359891436991 CXO 1 25867U 99040B 24027.71675503 .00000624 00000-0 00000+0 0 9990 2 25867 38.5126 168.4056 8999355 285.5718 0.1832 0.37808521 25183 ...Continue Reading
  • This mailing list is a public mailing list - anyone may join or leave, at any time.
  • This mailing list is announce-only.

International Space Station (ISS) / Hubble Space Telescope (HST) / Chandra X-Ray Observatory Orbital Data via EMAIL

Privacy Policy:

Private list